Location: Asheville, NC
(35.6000°N, 82.5500°W)
Time: 12:30:44
(UTC-04:00)

Vanguard 1 Rocket - Pass Details

Date: 08 December 2017
Orbit: 653 x 4224 km, 34.3° (Epoch: 23 June)

Event Time Altitude Azimuth Distance (km) Brightness Sun altitude
Rises 18:24:30 0° 240° (WSW) 4,704 12.8 -13.4°
Reaches altitude 10° 18:26:59 10° 237° (WSW) 4,043 12.0 -13.9°
Maximum altitude 18:38:35 70° 156° (SSE) 2,820 9.8 -16.2°
Enters shadow 18:54:22 23° 81° (E) 5,777 10.8 -19.3°
